TimeAKDT,TemperatureF,Dew PointF,Humidity,Sea Level PressureIn,VisibilityMPH,Wind Direction,Wind SpeedMPH,Gust SpeedMPH,PrecipitationIn,Events,Conditions,WindDirDegrees,DateUTC
12:16 AM,10.4,3.2,73,30.28,10.0,NE,3.5,-,N/A,,Clear,40,2012-10-11 08:16:00
12:36 AM,10.4,6.8,85,30.27,10.0,ENE,3.5,-,N/A,,Clear,60,2012-10-11 08:36:00
12:56 AM,10.4,5.0,79,30.27,10.0,ENE,3.5,-,N/A,,Clear,70,2012-10-11 08:56:00
1:16 AM,10.4,6.8,85,30.26,10.0,Calm,Calm,-,N/A,,Clear,0,2012-10-11 09:16:00
1:36 AM,10.4,5.0,79,30.25,10.0,Calm,Calm,-,N/A,,Clear,0,2012-10-11 09:36:00
1:56 AM,8.6,5.0,85,30.24,10.0,Calm,Calm,-,N/A,,Partly Cloudy,0,2012-10-11 09:56:00
2:16 AM,8.6,5.0,85,30.23,10.0,Calm,Calm,-,N/A,,Partly Cloudy,0,2012-10-11 10:16:00
2:36 AM,8.6,6.8,92,30.22,10.0,ENE,3.5,-,N/A,,Partly Cloudy,70,2012-10-11 10:36:00
2:56 AM,8.6,6.8,92,30.21,10.0,Calm,Calm,-,N/A,,Scattered Clouds,0,2012-10-11 10:56:00
3:16 AM,8.6,5.0,85,30.20,10.0,Calm,Calm,-,N/A,,Mostly Cloudy,0,2012-10-11 11:16:00
3:36 AM,8.6,6.8,92,30.19,10.0,Calm,Calm,-,N/A,,Overcast,0,2012-10-11 11:36:00
3:56 AM,10.4,8.6,92,30.18,10.0,Calm,Calm,-,N/A,,Overcast,0,2012-10-11 11:56:00
4:16 AM,8.6,6.8,92,30.17,10.0,Calm,Calm,-,N/A,,Mostly Cloudy,0,2012-10-11 12:16:00
4:36 AM,8.6,5.0,85,30.16,10.0,ENE,3.5,-,N/A,,Partly Cloudy,60,2012-10-11 12:36:00
4:56 AM,8.6,6.8,92,30.15,10.0,Calm,Calm,-,N/A,,Mostly Cloudy,0,2012-10-11 12:56:00
5:16 AM,8.6,5.0,85,30.14,10.0,Calm,Calm,-,N/A,,Mostly Cloudy,0,2012-10-11 13:16:00
5:36 AM,10.4,5.0,79,30.14,10.0,Calm,Calm,-,N/A,,Mostly Cloudy,0,2012-10-11 13:36:00
5:56 AM,8.6,6.8,92,30.13,10.0,Calm,Calm,-,N/A,,Partly Cloudy,0,2012-10-11 13:56:00
6:16 AM,6.8,5.0,92,30.12,10.0,Calm,Calm,-,N/A,,Clear,0,2012-10-11 14:16:00
6:36 AM,8.6,5.0,85,30.11,10.0,Calm,Calm,-,N/A,,Clear,0,2012-10-11 14:36:00
6:56 AM,8.6,3.2,79,30.10,10.0,Calm,Calm,-,N/A,,Clear,0,2012-10-11 14:56:00
7:16 AM,8.6,5.0,85,30.09,10.0,Calm,Calm,-,N/A,,Clear,0,2012-10-11 15:16:00
7:36 AM,6.8,3.2,85,30.08,10.0,Calm,Calm,-,N/A,,Clear,0,2012-10-11 15:36:00
7:56 AM,6.8,1.4,79,30.07,10.0,Calm,Calm,-,N/A,,Clear,0,2012-10-11 15:56:00
8:16 AM,8.6,8.6,100,30.06,10.0,Calm,Calm,-,N/A,,Clear,0,2012-10-11 16:16:00
8:36 AM,6.8,3.2,85,30.06,10.0,Calm,Calm,-,N/A,,Scattered Clouds,0,2012-10-11 16:36:00
8:56 AM,6.8,1.4,79,30.05,10.0,Calm,Calm,-,N/A,,Mostly Cloudy,0,2012-10-11 16:56:00
9:16 AM,6.8,6.8,100,30.04,10.0,Calm,Calm,-,N/A,,Partly Cloudy,0,2012-10-11 17:16:00
9:36 AM,8.6,5.0,85,30.03,10.0,Calm,Calm,-,N/A,,Clear,0,2012-10-11 17:36:00
9:56 AM,8.6,5.0,85,30.03,10.0,Calm,Calm,-,N/A,,Clear,0,2012-10-11 17:56:00
10:16 AM,8.6,6.8,92,30.02,10.0,Calm,Calm,-,N/A,,Clear,0,2012-10-11 18:16:00
10:36 AM,10.4,10.4,100,30.01,10.0,Calm,Calm,-,N/A,,Clear,0,2012-10-11 18:36:00
10:56 AM,12.2,8.6,85,30.00,10.0,Calm,Calm,-,N/A,,Clear,0,2012-10-11 18:56:00
11:16 AM,12.2,6.8,79,30.00,10.0,Calm,Calm,-,N/A,,Clear,0,2012-10-11 19:16:00
11:36 AM,12.2,6.8,79,29.98,10.0,Calm,Calm,-,N/A,,Partly Cloudy,0,2012-10-11 19:36:00
11:56 AM,12.2,6.8,79,29.98,10.0,Calm,Calm,-,N/A,,Partly Cloudy,0,2012-10-11 19:56:00
12:16 PM,12.2,8.6,85,29.97,10.0,Calm,Calm,-,N/A,,Clear,0,2012-10-11 20:16:00
12:36 PM,15.8,8.6,73,29.96,10.0,Calm,Calm,-,N/A,,Clear,0,2012-10-11 20:36:00
12:56 PM,15.8,8.6,73,29.95,10.0,Calm,Calm,-,N/A,,Clear,0,2012-10-11 20:56:00
1:16 PM,15.8,8.6,73,29.93,10.0,Calm,Calm,-,N/A,,Partly Cloudy,0,2012-10-11 21:16:00
1:36 PM,17.6,8.6,68,29.93,10.0,Calm,Calm,-,N/A,,Mostly Cloudy,0,2012-10-11 21:36:00
1:56 PM,17.6,8.6,68,29.92,10.0,Calm,Calm,-,N/A,,Overcast,0,2012-10-11 21:56:00
2:16 PM,17.6,8.6,68,29.91,10.0,Calm,Calm,-,N/A,,Overcast,0,2012-10-11 22:16:00
2:36 PM,17.6,6.8,63,29.90,10.0,Calm,Calm,-,N/A,,Overcast,0,2012-10-11 22:36:00
2:56 PM,17.6,8.6,68,29.89,10.0,Calm,Calm,-,N/A,,Overcast,0,2012-10-11 22:56:00
3:16 PM,19.4,8.6,63,29.88,10.0,Calm,Calm,-,N/A,,Overcast,0,2012-10-11 23:16:00
3:36 PM,19.4,8.6,63,29.87,10.0,Calm,Calm,-,N/A,,Overcast,0,2012-10-11 23:36:00
3:56 PM,19.4,8.6,63,29.86,10.0,Calm,Calm,-,N/A,,Overcast,0,2012-10-11 23:56:00
4:16 PM,19.4,10.4,68,29.85,10.0,Calm,Calm,-,N/A,,Overcast,0,2012-10-12 00:16:00
4:36 PM,19.4,8.6,63,29.84,10.0,Calm,Calm,-,N/A,,Overcast,0,2012-10-12 00:36:00
4:56 PM,19.4,8.6,63,29.83,10.0,Calm,Calm,-,N/A,,Overcast,0,2012-10-12 00:56:00
5:16 PM,19.4,8.6,63,29.83,10.0,Calm,Calm,-,N/A,,Overcast,0,2012-10-12 01:16:00
5:36 PM,19.4,6.8,58,29.82,10.0,Calm,Calm,-,N/A,,Overcast,0,2012-10-12 01:36:00
5:56 PM,19.4,8.6,63,29.81,10.0,Calm,Calm,-,N/A,,Mostly Cloudy,0,2012-10-12 01:56:00
6:16 PM,19.4,8.6,63,29.80,10.0,Calm,Calm,-,N/A,,Overcast,0,2012-10-12 02:16:00
6:36 PM,19.4,8.6,63,29.79,10.0,Calm,Calm,-,N/A,,Overcast,0,2012-10-12 02:36:00
6:56 PM,19.4,8.6,63,29.78,10.0,Calm,Calm,-,N/A,,Overcast,0,2012-10-12 02:56:00
7:16 PM,19.4,8.6,63,29.77,10.0,Calm,Calm,-,N/A,,Overcast,0,2012-10-12 03:16:00
7:36 PM,19.4,10.4,68,29.76,10.0,Calm,Calm,-,N/A,,Mostly Cloudy,0,2012-10-12 03:36:00
7:56 PM,19.4,8.6,63,29.76,10.0,Calm,Calm,-,N/A,,Overcast,0,2012-10-12 03:56:00
8:16 PM,17.6,10.4,73,29.75,10.0,Calm,Calm,-,N/A,,Overcast,0,2012-10-12 04:16:00
8:36 PM,17.6,10.4,73,29.74,10.0,Calm,Calm,-,N/A,,Overcast,0,2012-10-12 04:36:00
8:56 PM,17.6,10.4,73,29.74,10.0,SSW,3.5,-,N/A,,Overcast,210,2012-10-12 04:56:00